DECAYED

STARLINK-4749, 53818 (Decayed)

Orbit data source: Space-Track

STARLINK-4749, 53818 was a payload satellite owned by SpaceX/Seattle (US) in LEO that was launched on Mon, 19 Sep 2022 UTC via an FALCON 9 launch vehicle from the Air Force Eastern Test Range (AFETR). Payload-class satellites include a variety of spacecraft equipped with specific instruments for various scientific and technological missions. These include communications satellites like Starlink; space stations such as the ISS; scientific satellites like the Hubble; Earth observation satellites from companies like Planet Labs, Umbra, and HawkEye 360; GPS; miniature CubeSats for education and research; and military/defense satellites.

Not visible in the next 10 days
Identifier
53818, 2022-114A
Orbit
Decayed
Country
Flag of USUS
Related business
Manufacturer
SpaceX/Seattle
Mission
Decayed Commercial Communications
Bus & Motor
STARLINK, Unknown motor
Mass
305 kg wet, ~290 kg dry
Launch date (UTC)
2022-09-19 (4 years ago)
Launch vehicle
FALCON 9
Launch site
Air Force Eastern Test Range (AFETR)
Object type
Payload
Rocket body
Debris
Shape & HBR
Box + 1 Pan, 10.1 m
Radar Cross Section
13.562 m², Large (>1 m²)

Expand to show TLE details & history
Last TLE update: 1 year ago

TLE from 1 year ago
0 STARLINK-4749
1 53818U 22114A   25067.12065444  .24259016  12321-4  22326-2 0  9990
2 53818  53.1738  60.0651 0002075  44.8621   2.1344 16.38065316138220
Epoch: 2025-03-08T02:53Z
TLE epoch observation values (Epoch: 2025-03-08T02:53:44.543Z)
Latitude
35.95218°
Longitude
-116.76061°
Altitude
172.351 km
Speed
7.808 km/s
True Right ascension
06h 10m 59s
True Declination
35° 46' 27"
Sunlit
Object was in full shadow at epoch
Visualization orbit readout
Latitude
Unknown
Longitude
Unknown
Altitude
Unknown
Speed
Unknown
Apparent Right ascension
Unknown
Apparent Declination
Unknown
Sunlit
N/A
Visualization observer readout
Local Sidereal Time
21:29:33
Azimuth
Unknown
Elevation
Unknown
Doppler factor
Unknown
Orbital elements
Apogee altitude
172.579 km
Perigee altitude
169.861 km
Semi-major axis
6,549.357 km
Eccentricity
0.00021
Inclination
53.1738°
RAAN
60.0651°
Arg. of periapsis
44.8621°
True anomaly
2.13529°
Mean anomaly
2.1344°
Eccentric anomaly
2.13484°
Mean motion
4.09492 °/min
Orbital period
87.91 mins
BSTAR
0.0022326
Loading maneuver chart data...
Computing Atmospheric mass density...
Loading historical data...
Loading historical data...
Loading historical data...
Loading historical data...
Loading historical data...
Loading historical data...
Loading historical data...

Documentation

Showing up to 5 results
|